User: anonymous   Login
Location: Oshawa
(43.9000°N, 78.8670°W)
Time: 11:31:31
(UTC-04:00)
Language:

Cosmos 839 Rocket - Orbit

View from above orbital plane
View from above orbital plane
View from above satellite
View from above satellite

Ground track
Ground track

The orbit data is extracted from the following two-line orbital elements,

1 09013U 76067B   15125.82474241 -.00000069  00000-0 -48038-4 0  9999
2 09013 065.8660 068.0270 0712795 015.3524 004.6398 12.35316824751121
Epoch (UTC): 05 May 2015 19:47:37
Eccentricity: 0.0712795
inclination: 65.8660°
perigee height: 963 km
apogee height: 2090 km
right ascension of ascending node: 68.0270°
argument of perigee: 15.3524°
revolutions per day: 12.35316824
mean anomaly at epoch: 4.6398°
orbit number at epoch: 75112

The dashed part of the orbit path shows where the satellite is in the earth's shadow,  

DLR